Location: *
(45.1961°N, 1.9694°E)
Time: 22:36:50
(UTC+00:00)

Resurs 01 Rocket - Pass Details

Date: 25 August 2019
Orbit: 635 x 643 km, 98.0° (Epoch: 17 September)

Event Time Altitude Azimuth Distance (km) Brightness Sun altitude
Exits shadow 19:23:25 - 130° (SE) 2,158 3.7 -7.6°
Reaches altitude 10° 19:23:48 10° 128° (SE) 2,019 3.6 -7.6°
Maximum altitude 19:27:38 30° 67° (ENE) 1,139 2.6 -8.2°
Drops below altitude 10° 19:31:29 10° 7° (N) 2,033 4.5 -8.9°
Sets 19:33:53 0° 357° (N) 2,947 5.5 -9.2°
